EW8308 Weather Reports


Display with metric or nautical units.
time (UTC)temp
F
wind
direction
speed
MPH
gust
MPH
rain 1hr
in
rain 24hr
in
rain mn
in
humidity
%
barometer
mb
20260507030418 62 250 3.0 4.0 0.00 0.00 0.00 63 1012.4
20260507025916 63 250 3.0 4.0 0.00 0.00 0.00 62 1012.3
20260507025415 63 250 3.0 3.0 0.00 0.00 0.00 61 1012.4
20260507024914 64 249 3.0 3.0 0.00 0.00 0.00 60 1012.4
20260507024415 64 250 2.0 3.0 0.00 0.00 0.00 58 1012.4
20260507023415 65 249 1.0 2.0 0.00 0.00 0.00 58 1012.4
20260507021912 67 249 0.0 1.0 0.00 0.00 0.00 51 1012.5
20260507021412 67 249 0.0 1.0 0.00 0.00 0.00 48 1012.5
20260507020910 67 250 0.0 3.0 0.00 0.00 0.00 48 1012.5
20260507020410 68 250 0.0 3.0 0.00 0.00 0.00 49 1012.6
20260507015908 68 250 1.0 4.0 0.00 0.00 0.00 47 1012.6
20260507015409 68 250 1.0 4.0 0.00 0.00 0.00 48 1012.7
20260507014907 68 250 0.0 3.0 0.00 0.00 0.00 48 1012.7
20260507014404 69 250 1.0 2.0 0.00 0.00 0.00 48 1012.7
20260507013906 69 249 1.0 6.0 0.00 0.00 0.00 48 1012.7
20260507012903 69 249 0.0 3.0 0.00 0.00 0.00 47 1012.7
20260507012402 69 249 1.0 4.0 0.00 0.00 0.00 47 1012.7
20260507011901 69 250 1.0 4.0 0.00 0.00 0.00 47 1012.6
20260507011401 70 249 2.0 8.0 0.00 0.00 0.00 47 1012.7
20260507010359 70 250 2.0 7.0 0.00 0.00 0.00 44 1012.6
20260507005901 70 249 1.0 6.0 0.00 0.00 0.00 44 1012.7
20260507005400 71 250 1.0 10.0 0.00 0.00 0.00 45 1012.7
20260507004859 71 250 2.0 10.0 0.00 0.00 0.00 46 1012.7
20260507003857 71 249 4.0 11.0 0.00 0.00 0.00 45 1012.7
20260507002857 71 249 4.0 12.0 0.00 0.00 0.00 43 1012.7
20260507002357 71 249 3.0 10.0 0.00 0.00 0.00 44 1012.7
20260507001357 71 249 3.0 8.0 0.00 0.00 0.00 44 1012.8
20260507000857 71 250 3.0 8.0 0.00 0.00 0.00 44 1012.8
20260506235857 72 250 3.0 11.0 0.00 0.00 0.00 43 1012.7
20260506235356 72 250 4.0 10.0 0.00 0.00 0.00 43 1012.7
20260506234856 72 249 4.0 12.0 0.00 0.00 0.00 40 1012.6
20260506234353 72 249 3.0 12.0 0.00 0.00 0.00 41 1012.7
20260506233853 73 249 3.0 11.0 0.00 0.00 0.00 45 1012.8
20260506233353 73 250 5.0 14.0 0.00 0.00 0.00 40 1012.7
20260506232853 74 250 5.0 14.0 0.00 0.00 0.00 41 1012.7
20260506232353 74 250 3.0 11.0 0.00 0.00 0.00 46 1012.7
20260506230853 73 249 4.0 11.0 0.00 0.00 0.00 41 1012.7
20260506225852 73 250 4.0 10.0 0.00 0.00 0.00 43 1012.7
20260506225352 73 250 4.0 11.0 0.00 0.00 0.00 43 1012.8
20260506224852 74 250 6.0 13.0 0.00 0.00 0.00 40 1012.8
20260506224349 74 250 6.0 14.0 0.00 0.00 0.00 39 1012.9
20260506223847 73 249 5.0 14.0 0.00 0.00 0.00 40 1012.9
20260506222847 74 250 4.0 12.0 0.00 0.00 0.00 40 1013.0
20260506222348 74 250 5.0 12.0 0.00 0.00 0.00 40 1013.1
20260506221347 74 250 4.0 15.0 0.00 0.00 0.00 39 1013.2
20260506220847 74 250 4.0 10.0 0.00 0.00 0.00 40 1013.4
20260506220347 74 250 5.0 11.0 0.00 0.00 0.00 37 1013.5
20260506215847 74 250 5.0 11.0 0.00 0.00 0.00 38 1013.6
20260506215347 74 250 6.0 13.0 0.00 0.00 0.00 38 1013.6
20260506214346 74 250 6.0 15.0 0.00 0.00 0.00 39 1013.8
20260506213847 74 249 5.0 11.0 0.00 0.00 0.00 44 1013.7
20260506213347 74 250 5.0 12.0 0.00 0.00 0.00 42 1013.7
20260506212846 73 249 6.0 14.0 0.00 0.00 0.00 42 1013.9
20260506211847 73 249 8.0 17.0 0.00 0.00 0.00 41 1013.8
20260506211347 73 250 6.0 14.0 0.00 0.00 0.00 41 1013.6
20260506210847 73 250 5.0 11.0 0.00 0.00 0.00 40 1013.8
20260506210347 73 249 5.0 11.0 0.00 0.00 0.00 41 1013.8
20260506205837 73 249 6.0 15.0 0.00 0.00 0.00 41 1013.9
20260506205335 73 249 5.0 15.0 0.00 0.00 0.00 44 1013.7
20260506204834 72 250 5.0 12.0 0.00 0.00 0.00 44 1013.8
20260506204333 72 249 4.0 12.0 0.00 0.00 0.00 44 1013.9
20260506203832 72 250 2.0 11.0 0.00 0.00 0.00 44 1013.8
20260506203330 72 249 4.0 13.0 0.00 0.00 0.00 43 1013.9
20260506202830 72 250 4.0 13.0 0.00 0.00 0.00 43 1014.0
20260506202328 71 250 2.0 8.0 0.00 0.00 0.00 44 1014.1
20260506201827 71 250 2.0 10.0 0.00 0.00 0.00 48 1014.1
20260506201326 71 250 3.0 10.0 0.00 0.00 0.00 48 1014.2
20260506200824 71 249 3.0 8.0 0.00 0.00 0.00 47 1014.2
20260506200324 70 249 4.0 9.0 0.00 0.00 0.00 46 1014.2
20260506195822 70 249 5.0 9.0 0.00 0.00 0.00 46 1014.4
20260506195322 70 250 4.0 9.0 0.00 0.00 0.00 44 1014.3
20260506194320 70 250 3.0 7.0 0.00 0.00 0.00 47 1014.3
20260506193318 69 249 2.0 8.0 0.00 0.00 0.00 44 1014.4
20260506192318 69 250 3.0 8.0 0.00 0.00 0.00 44 1014.7
20260506191818 69 249 3.0 7.0 0.00 0.00 0.00 47 1014.7
20260506191316 68 250 3.0 7.0 0.00 0.00 0.00 45 1014.5
20260506185814 67 249 5.0 10.0 0.00 0.00 0.00 46 1014.8
20260506185314 67 250 6.0 11.0 0.00 0.00 0.00 44 1014.8
20260506184814 67 249 4.0 11.0 0.00 0.00 0.00 45 1014.8
20260506183810 68 249 5.0 11.0 0.00 0.00 0.00 42 1014.9
20260506183310 67 249 4.0 11.0 0.00 0.00 0.00 45 1014.9
20260506182810 67 249 5.0 14.0 0.00 0.00 0.00 45 1014.9
20260506182308 67 250 7.0 14.0 0.00 0.00 0.00 48 1015.0
20260506181808 67 249 6.0 14.0 0.00 0.00 0.00 45 1014.9
20260506181308 67 250 5.0 10.0 0.00 0.00 0.00 46 1015.0
20260506180807 67 249 5.0 10.0 0.00 0.00 0.00 45 1014.9
20260506175808 67 250 3.0 7.0 0.00 0.00 0.00 43 1015.0
20260506175306 67 250 2.0 7.0 0.00 0.00 0.00 47 1015.0
20260506174804 67 249 2.0 6.0 0.00 0.00 0.00 44 1014.9
20260506174304 66 250 2.0 7.0 0.00 0.00 0.00 41 1015.0
20260506173804 67 250 3.0 7.0 0.00 0.00 0.00 40 1015.0
20260506173303 67 249 3.0 7.0 0.00 0.00 0.00 44 1015.0
20260506172804 67 250 3.0 7.0 0.00 0.00 0.00 39 1015.0
20260506172306 67 249 3.0 6.0 0.00 0.00 0.00 40 1015.0
20260506171803 67 249 1.0 5.0 0.00 0.00 0.00 40 1014.9
20260506171300 67 250 1.0 5.0 0.00 0.00 0.00 44 1014.9
20260506170800 66 250 1.0 5.0 0.00 0.00 0.00 42 1014.9
20260506165758 65 250 1.0 3.0 0.00 0.00 0.00 41 1014.9
20260506164757 64 250 1.0 4.0 0.00 0.00 0.00 43 1014.9
20260506163756 64 249 1.0 3.0 0.00 0.00 0.00 45 1014.8
20260506163255 64 250 0.0 2.0 0.00 0.00 0.00 42 1014.9
20260506162752 63 249 1.0 3.0 0.00 0.00 0.00 49 1014.9
20260506162252 63 250 1.0 3.0 0.00 0.00 0.00 44 1015.0
20260506161751 62 250 1.0 3.0 0.00 0.00 0.00 44 1015.1
20260506161253 62 250 1.0 3.0 0.00 0.00 0.00 47 1015.1
20260506160752 61 250 1.0 3.0 0.00 0.00 0.00 43 1015.1
20260506160251 61 250 1.0 3.0 0.00 0.00 0.00 47 1015.1
20260506155749 60 250 1.0 3.0 0.00 0.00 0.00 47 1015.2
20260506155248 60 250 1.0 3.0 0.00 0.00 0.00 46 1015.1
20260506154749 60 250 1.0 3.0 0.00 0.00 0.00 46 1015.2
20260506153747 59 250 1.0 3.0 0.00 0.00 0.00 46 1015.3
20260506153247 59 250 1.0 3.0 0.00 0.00 0.00 46 1015.3
20260506152746 58 250 1.0 3.0 0.00 0.00 0.00 48 1015.3
20260506152246 58 249 1.0 3.0 0.00 0.00 0.00 47 1015.4
20260506151744 58 250 1.0 2.0 0.00 0.00 0.00 49 1015.3
20260506151244 58 249 1.0 2.0 0.00 0.00 0.00 49 1015.3
20260506150742 58 250 0.0 2.0 0.00 0.00 0.00 47 1015.2
20260506150242 57 250 0.0 2.0 0.00 0.00 0.00 49 1015.2
20260506145740 57 249 0.0 2.0 0.00 0.00 0.00 49 1015.2
20260506144239 56 250 0.0 3.0 0.00 0.00 0.00 50 1015.2
20260506143740 55 250 0.0 3.0 0.00 0.00 0.00 52 1015.2
20260506143239 55 249 0.0 2.0 0.00 0.00 0.00 53 1015.2
20260506142740 55 250 0.0 2.0 0.00 0.00 0.00 53 1015.3
20260506142239 54 250 0.0 2.0 0.00 0.00 0.00 55 1015.3
20260506141738 54 250 0.0 2.0 0.00 0.00 0.00 54 1015.3
20260506140737 53 250 1.0 3.0 0.00 0.00 0.00 55 1015.2
20260506140235 52 250 1.0 3.0 0.00 0.00 0.00 55 1015.1
20260506135734 52 250 1.0 3.0 0.00 0.00 0.00 51 1015.2
20260506135234 52 250 1.0 3.0 0.00 0.00 0.00 54 1015.1
20260506134735 51 250 0.0 2.0 0.00 0.00 0.00 57 1015.1
20260506134233 51 250 0.0 2.0 0.00 0.00 0.00 55 1015.1
20260506133734 50 250 0.0 0.0 0.00 0.00 0.00 56 1015.0
20260506133232 49 250 0.0 0.0 0.00 0.00 0.00 57 1015.0
20260506132230 49 250 0.0 1.0 0.00 0.00 0.00 57 1014.8
20260506131730 48 250 0.0 0.0 0.00 0.00 0.00 58 1014.8
20260506131229 47 250 0.0 0.0 0.00 0.00 0.00 58 1014.8
20260506130726 46 250 0.0 0.0 0.00 0.00 0.00 60 1014.7
20260506130227 45 250 0.0 1.0 0.00 0.00 0.00 62 1014.7
20260506125726 46 250 0.0 1.0 0.00 0.00 0.00 63 1014.7
20260506125227 45 250 0.0 3.0 0.00 0.00 0.00 63 1014.7
20260506124725 45 250 1.0 3.0 0.00 0.00 0.00 65 1014.7
20260506124225 45 250 1.0 3.0 0.00 0.00 0.00 63 1014.7
20260506123724 45 250 0.0 3.0 0.00 0.00 0.00 63 1014.7
20260506122725 44 249 0.0 3.0 0.00 0.00 0.00 65 1014.7
20260506121725 44 250 1.0 2.0 0.00 0.00 0.00 65 1014.5
20260506121223 45 250 1.0 4.0 0.00 0.00 0.00 64 1014.5
20260506120724 45 249 0.0 4.0 0.00 0.00 0.00 64 1014.5
20260506120224 45 250 0.0 3.0 0.00 0.00 0.00 64 1014.5
20260506115725 45 249 0.0 1.0 0.00 0.00 0.00 64 1014.4
20260506114724 45 250 1.0 2.0 0.00 0.00 0.00 64 1014.2
20260506114223 45 250 1.0 5.0 0.00 0.00 0.00 65 1014.3
20260506113724 45 250 1.0 5.0 0.00 0.00 0.00 64 1014.3
20260506113225 45 250 1.0 5.0 0.00 0.00 0.00 64 1014.3
20260506112724 45 250 1.0 2.0 0.00 0.00 0.00 63 1014.2
20260506112223 45 250 1.0 2.0 0.00 0.00 0.00 63 1014.2
20260506111724 45 250 1.0 3.0 0.00 0.00 0.00 64 1014.3
20260506111224 45 250 1.0 3.0 0.00 0.00 0.00 64 1014.3
20260506110725 46 250 1.0 4.0 0.00 0.00 0.00 63 1014.3
20260506110225 46 250 1.0 4.0 0.00 0.00 0.00 63 1014.2
20260506105724 47 250 1.0 3.0 0.00 0.00 0.00 62 1014.2
20260506104723 48 250 0.0 2.0 0.00 0.00 0.00 57 1014.2
20260506104224 48 250 0.0 2.0 0.00 0.00 0.00 57 1014.1
20260506103726 47 250 0.0 0.0 0.00 0.00 0.00 57 1014.1
20260506102725 47 250 1.0 3.0 0.00 0.00 0.00 60 1014.2
20260506102221 47 250 1.0 4.0 0.00 0.00 0.00 58 1014.1
20260506101712 48 250 1.0 4.0 0.00 0.00 0.00 60 1014.0
20260506100710 48 250 1.0 3.0 0.00 0.00 0.00 60 1014.1
20260506100209 48 250 1.0 3.0 0.00 0.00 0.00 59 1014.0
20260506095709 48 250 1.0 3.0 0.00 0.00 0.00 58 1014.0
20260506095208 49 250 0.0 1.0 0.00 0.00 0.00 58 1013.9
20260506094706 49 249 0.0 2.0 0.00 0.00 0.00 57 1013.9
20260506094205 49 249 0.0 2.0 0.00 0.00 0.00 56 1013.9
20260506093203 49 249 0.0 1.0 0.00 0.00 0.00 56 1014.0
20260506092703 50 250 0.0 1.0 0.00 0.00 0.00 55 1013.9
20260506092201 50 250 0.0 0.0 0.00 0.00 0.00 55 1014.0
20260506091700 50 250 0.0 2.0 0.00 0.00 0.00 55 1014.0
20260506091159 50 250 0.0 2.0 0.00 0.00 0.00 55 1014.0
20260506090659 50 250 0.0 2.0 0.00 0.00 0.00 55 1014.0
20260506090156 50 250 0.0 2.0 0.00 0.00 0.00 55 1014.0
20260506085657 50 249 1.0 4.0 0.00 0.00 0.00 55 1014.0
20260506085156 50 250 1.0 4.0 0.00 0.00 0.00 55 1014.0
20260506084653 50 250 1.0 3.0 0.00 0.00 0.00 56 1013.9
20260506084154 51 250 0.0 3.0 0.00 0.00 0.00 56 1014.1
20260506083651 51 250 0.0 1.0 0.00 0.00 0.00 54 1014.0
20260506083152 51 249 0.0 1.0 0.00 0.00 0.00 53 1014.0
20260506082652 52 250 0.0 1.0 0.00 0.00 0.00 52 1014.0
20260506082151 53 250 1.0 5.0 0.00 0.00 0.00 50 1013.9
20260506081650 53 250 1.0 5.0 0.00 0.00 0.00 50 1013.9
20260506081151 53 250 0.0 4.0 0.00 0.00 0.00 49 1013.9
20260506080650 53 250 0.0 3.0 0.00 0.00 0.00 48 1013.9
20260506080149 53 250 0.0 3.0 0.00 0.00 0.00 49 1013.8
20260506073143 54 250 0.0 5.0 0.00 0.00 0.00 47 1013.5
20260506072642 54 250 1.0 4.0 0.00 0.00 0.00 48 1013.6
20260506071641 54 250 1.0 4.0 0.00 0.00 0.00 49 1013.6
20260506071139 54 249 1.0 5.0 0.00 0.00 0.00 48 1013.6
20260506070640 54 250 1.0 5.0 0.00 0.00 0.00 47 1013.4
20260506062130 54 250 0.0 2.0 0.00 0.00 0.00 50 1013.1
20260506061126 53 249 0.0 2.0 0.00 0.00 0.00 51 1012.9
20260506060624 53 250 0.0 2.0 0.00 0.00 0.00 52 1012.8
20260506060121 54 250 1.0 4.0 0.00 0.00 0.00 52 1012.8
20260506050613 55 250 2.0 4.0 0.00 0.00 0.00 50 1012.4
20260506050109 55 249 3.0 5.0 0.00 0.00 0.00 51 1012.4
20260506045106 55 250 3.0 6.0 0.00 0.00 0.00 51 1012.5
20260506044607 54 249 3.0 6.0 0.00 0.00 0.00 53 1012.5
20260506044106 53 250 4.0 5.0 0.00 0.00 0.00 57 1012.5
20260506043606 53 250 4.0 5.0 0.00 0.00 0.00 57 1012.5
20260506043105 53 249 4.0 5.0 0.00 0.00 0.00 58 1012.5
20260506042605 53 250 4.0 5.0 0.00 0.00 0.00 57 1012.5
20260506041601 53 250 3.0 4.0 0.00 0.00 0.00 57 1012.4
20260506040557 55 250 2.0 3.0 0.00 0.00 0.00 52 1012.3
20260506040058 56 250 2.0 4.0 0.00 0.00 0.00 50 1012.3
20260506035559 56 250 2.0 4.0 0.00 0.00 0.00 51 1012.2
20260506035058 55 250 3.0 4.0 0.00 0.00 0.00 53 1012.1
20260506034557 56 249 3.0 4.0 0.00 0.00 0.00 52 1012.1
20260506034053 57 250 4.0 5.0 0.00 0.00 0.00 50 1011.9
20260506033552 58 249 4.0 5.0 0.00 0.00 0.00 49 1011.9
20260506033051 58 250 4.0 5.0 0.00 0.00 0.00 48 1011.8
20260506032552 59 249 4.0 5.0 0.00 0.00 0.00 47 1011.8
20260506032052 59 250 3.0 4.0 0.00 0.00 0.00 46 1011.7
20260506031549 60 249 3.0 4.0 0.00 0.00 0.00 45 1011.7
20260506031049 62 250 2.0 3.0 0.00 0.00 0.00 41 1011.6